DELTA 1 DEB, 21272

Orbit data source: Space-Track

DELTA 1 DEB, 21272 is space debris in SSO originally from a launch on Thu, 12 Jun 1975 UTC launched from the Air Force Western Test Range (AFWTR). Debris objects in space refer to the collection of defunct objects orbiting the Earth. Examples of debris include non-operational satellites, rocket bodies, and fragments generated from explosions, collisions, or faulty payload assembly.

Loading next visibility...
Identifier
21272, 1975-052H
Orbit
SSO
Country
Flag of USUS
Related business
Manufacturer
Unknown
Mission
Spacecraft
Bus & Motor
Unknown
Mass
Unknown
Launch date (UTC)
1975-06-12 (51 years ago)
Launch vehicle
Unknown
Launch site
Air Force Western Test Range (AFWTR)
Object type
Payload
Rocket body
Debris
Shape & HBR
Unknown shape, 0.1 m
Radar Cross Section
Small (<0.1 m²)

Expand to show TLE details & history
Last TLE update: 12 hours ago

TLE from 12 hours ago
0 DELTA 1 DEB
1 21272U 75052H   25353.91812653  .00000342  00000-0  11262-2 0  9999
2 21272  99.8410 146.2379 0307872 303.8858 213.5274 12.93296001566454
Epoch: 2025-12-19T22:02Z
TLE epoch observation values (Epoch: 2025-12-19T22:02:06.132Z)
Latitude
24.11355°
Longitude
-88.60856°
Altitude
1,490.133 km
Speed
7.028 km/s
True Right ascension
22h 02m 40s
True Declination
23° 59' 51"
Sunlit
Object was in daylight at epoch
Visualization orbit readout
Latitude
Unknown
Longitude
Unknown
Altitude
Unknown
Speed
Unknown
Apparent Right ascension
Unknown
Apparent Declination
Unknown
Sunlit
N/A
Visualization observer readout
Local Sidereal Time
09:08:08
Azimuth
Unknown
Elevation
Unknown
Doppler factor
Unknown
Orbital elements
Apogee altitude
1,521.804 km
Perigee altitude
1,049.899 km
Semi-major axis
7,663.988 km
Eccentricity
0.03079
Inclination
99.841°
RAAN
146.2379°
Arg. of periapsis
303.8858°
True anomaly
211.63977°
Mean anomaly
213.5274°
Eccentric anomaly
212.5776°
Mean motion
3.2349 °/min
Orbital period
111.29 mins
BSTAR
0.0011262
Loading maneuver chart data...
Computing Atmospheric mass density...
Loading historical data...
Loading historical data...
Loading historical data...
Loading historical data...
Loading historical data...
Loading historical data...
Loading historical data...

Documentation

Showing up to 5 results
|